Time,TemperatureF,DewpointF,PressureIn,WindDirection,WindDirectionDegrees,WindSpeedMPH,WindSpeedGustMPH,Humidity,HourlyPrecipIn,Conditions,Clouds,dailyrainin,SoftwareType,DateUTC
2013-12-17 00:03:00,70.9,61.3,29.97,North,8,1.0,7.0,72,0.00,,,0.00,meteohub,2013-12-17 10:03:00,
2013-12-17 00:08:00,71.2,61.0,29.97,NE,42,4.0,7.0,70,0.00,,,0.00,meteohub,2013-12-17 10:08:00,
2013-12-17 00:13:00,71.2,59.7,29.97,NNE,23,3.0,6.0,67,0.00,,,0.00,meteohub,2013-12-17 10:13:00,
2013-12-17 00:18:00,71.8,61.5,29.97,WNW,298,2.0,6.0,70,0.00,,,0.00,meteohub,2013-12-17 10:18:00,
2013-12-17 00:23:00,72.0,62.8,29.96,NNE,26,3.0,8.0,73,0.00,,,0.00,meteohub,2013-12-17 10:23:00,
2013-12-17 00:28:00,72.0,62.4,29.96,North,1,0.0,8.0,72,0.00,,,0.00,meteohub,2013-12-17 10:28:00,
2013-12-17 00:33:00,71.6,62.1,29.96,NE,43,0.0,7.0,72,0.00,,,0.00,meteohub,2013-12-17 10:33:00,
2013-12-17 00:38:00,70.7,60.8,29.96,NE,46,1.0,5.0,71,0.00,,,0.00,meteohub,2013-12-17 10:38:00,
2013-12-17 00:43:00,70.3,61.7,29.96,NE,34,1.0,4.0,74,0.00,,,0.00,meteohub,2013-12-17 10:43:00,
2013-12-17 00:48:00,70.3,62.1,29.96,NNE,18,1.0,4.0,75,0.00,,,0.00,meteohub,2013-12-17 10:48:00,
2013-12-17 00:54:00,70.7,62.8,29.97,NNE,25,1.0,4.0,76,0.00,,,0.00,meteohub,2013-12-17 10:54:00,
2013-12-17 00:59:00,71.1,63.1,29.97,NNE,33,2.0,4.0,76,0.00,,,0.00,meteohub,2013-12-17 10:59:00,
2013-12-17 01:04:00,70.9,62.6,29.97,NE,37,3.0,6.0,75,0.00,,,0.00,meteohub,2013-12-17 11:04:00,
2013-12-17 01:09:00,70.5,62.2,29.97,NE,56,2.0,6.0,75,0.00,,,0.00,meteohub,2013-12-17 11:09:00,
2013-12-17 01:14:00,70.3,62.1,29.97,East,86,2.0,6.0,75,0.00,,,0.00,meteohub,2013-12-17 11:14:00,
2013-12-17 01:19:00,70.2,61.9,29.97,NE,42,0.0,5.0,75,0.00,,,0.00,meteohub,2013-12-17 11:19:00,
2013-12-17 01:24:00,70.2,61.9,29.97,ENE,69,1.0,5.0,75,0.00,,,0.00,meteohub,2013-12-17 11:24:00,
2013-12-17 01:29:00,70.0,61.7,29.97,ENE,77,1.0,5.0,75,0.00,,,0.00,meteohub,2013-12-17 11:29:00,
2013-12-17 01:34:00,69.6,61.7,29.97,ENE,60,1.0,3.0,76,0.00,,,0.00,meteohub,2013-12-17 11:34:00,
2013-12-17 01:40:00,69.8,61.9,29.97,ENE,67,1.0,3.0,76,0.00,,,0.00,meteohub,2013-12-17 11:40:00,
2013-12-17 01:45:00,70.2,62.2,29.97,ENE,74,1.0,3.0,76,0.00,,,0.00,meteohub,2013-12-17 11:45:00,
2013-12-17 01:50:00,70.3,62.4,29.97,NE,39,2.0,3.0,76,0.00,,,0.00,meteohub,2013-12-17 11:50:00,
2013-12-17 01:55:00,70.2,61.9,29.97,ENE,70,1.0,4.0,75,0.00,,,0.00,meteohub,2013-12-17 11:55:00,
2013-12-17 02:00:00,70.0,61.3,29.97,NE,44,2.0,4.0,74,0.00,,,0.00,meteohub,2013-12-17 12:00:00,
2013-12-17 02:05:00,70.0,60.6,29.97,North,349,1.0,4.0,72,0.00,,,0.00,meteohub,2013-12-17 12:05:00,
2013-12-17 02:10:00,70.2,60.3,29.97,NE,56,2.0,4.0,71,0.00,,,0.00,meteohub,2013-12-17 12:10:00,
2013-12-17 02:15:00,70.0,60.1,29.96,ENE,58,2.0,4.0,71,0.00,,,0.00,meteohub,2013-12-17 12:15:00,
2013-12-17 02:20:00,70.0,60.1,29.96,East,79,1.0,4.0,71,0.00,,,0.00,meteohub,2013-12-17 12:20:00,
2013-12-17 02:25:00,69.6,59.7,29.96,East,98,1.0,4.0,71,0.00,,,0.00,meteohub,2013-12-17 12:25:00,
2013-12-17 02:31:00,68.9,59.2,29.96,East,86,2.0,4.0,71,0.00,,,0.00,meteohub,2013-12-17 12:31:00,
2013-12-17 02:36:00,68.5,59.2,29.96,East,84,2.0,3.0,72,0.00,,,0.00,meteohub,2013-12-17 12:36:00,
2013-12-17 02:41:00,68.2,58.5,29.96,ENE,70,1.0,3.0,71,0.00,,,0.00,meteohub,2013-12-17 12:41:00,
2013-12-17 02:46:00,67.5,57.7,29.96,East,93,3.0,3.0,71,0.00,,,0.00,meteohub,2013-12-17 12:46:00,
2013-12-17 02:51:00,66.9,56.5,29.96,ENE,61,3.0,4.0,69,0.00,,,0.00,meteohub,2013-12-17 12:51:00,
2013-12-17 02:56:00,66.9,55.9,29.96,East,91,2.0,4.0,68,0.00,,,0.00,meteohub,2013-12-17 12:56:00,
2013-12-17 03:01:00,67.3,56.3,29.96,ENE,58,2.0,4.0,68,0.00,,,0.00,meteohub,2013-12-17 13:01:00,
2013-12-17 03:06:00,67.3,57.2,29.96,ENE,70,2.0,3.0,70,0.00,,,0.00,meteohub,2013-12-17 13:06:00,
2013-12-17 03:11:00,67.6,57.6,29.96,East,82,0.0,4.0,70,0.00,,,0.00,meteohub,2013-12-17 13:11:00,
2013-12-17 03:16:00,67.6,57.6,29.96,ENE,58,1.0,4.0,70,0.00,,,0.00,meteohub,2013-12-17 13:16:00,
2013-12-17 03:21:00,67.8,57.2,29.97,ENE,73,2.0,4.0,69,0.00,,,0.00,meteohub,2013-12-17 13:21:00,
2013-12-17 03:26:00,68.4,57.4,29.97,ENE,73,2.0,3.0,68,0.00,,,0.00,meteohub,2013-12-17 13:26:00,
2013-12-17 03:31:00,68.7,57.4,29.97,ENE,72,1.0,4.0,67,0.00,,,0.00,meteohub,2013-12-17 13:31:00,
2013-12-17 03:36:00,68.7,57.4,29.97,ENE,77,2.0,4.0,67,0.00,,,0.00,meteohub,2013-12-17 13:36:00,
2013-12-17 03:41:00,68.7,57.7,29.97,ENE,77,2.0,4.0,68,0.00,,,0.00,meteohub,2013-12-17 13:41:00,
2013-12-17 03:46:00,68.7,57.4,29.97,East,82,3.0,3.0,67,0.00,,,0.00,meteohub,2013-12-17 13:46:00,
2013-12-17 03:51:00,68.5,57.6,29.97,ENE,70,2.0,4.0,68,0.00,,,0.00,meteohub,2013-12-17 13:51:00,
2013-12-17 03:57:00,68.5,57.9,29.97,East,81,2.0,4.0,69,0.00,,,0.00,meteohub,2013-12-17 13:57:00,
2013-12-17 04:02:00,68.5,58.3,29.97,East,83,2.0,4.0,70,0.00,,,0.00,meteohub,2013-12-17 14:02:00,
2013-12-17 04:07:00,68.7,59.4,29.98,East,86,2.0,3.0,72,0.00,,,0.00,meteohub,2013-12-17 14:07:00,
2013-12-17 04:12:00,69.1,60.1,29.98,ENE,71,2.0,4.0,73,0.00,,,0.00,meteohub,2013-12-17 14:12:00,
2013-12-17 04:17:00,68.9,60.3,29.98,ENE,63,1.0,4.0,74,0.00,,,0.00,meteohub,2013-12-17 14:17:00,
2013-12-17 04:22:00,69.3,61.0,29.98,ENE,77,1.0,5.0,75,0.00,,,0.00,meteohub,2013-12-17 14:22:00,
2013-12-17 04:27:00,69.6,61.7,29.98,East,84,1.0,5.0,76,0.00,,,0.00,meteohub,2013-12-17 14:27:00,
2013-12-17 04:32:00,70.0,62.4,29.98,ENE,63,2.0,5.0,77,0.00,,,0.00,meteohub,2013-12-17 14:32:00,
2013-12-17 04:37:00,70.0,62.4,29.98,ENE,72,0.0,4.0,77,0.00,,,0.00,meteohub,2013-12-17 14:37:00,
2013-12-17 04:42:00,69.6,62.1,29.98,East,80,1.0,3.0,77,0.00,,,0.00,meteohub,2013-12-17 14:42:00,
2013-12-17 04:47:00,69.4,61.9,29.97,East,82,1.0,3.0,77,0.00,,,0.00,meteohub,2013-12-17 14:47:00,
2013-12-17 04:52:00,69.1,61.5,29.98,ENE,77,1.0,3.0,77,0.00,,,0.00,meteohub,2013-12-17 14:52:00,
2013-12-17 04:57:00,68.7,61.2,29.98,East,86,1.0,3.0,77,0.00,,,0.00,meteohub,2013-12-17 14:57:00,
2013-12-17 05:02:00,68.5,61.3,29.98,ESE,108,1.0,3.0,78,0.00,,,0.00,meteohub,2013-12-17 15:02:00,
2013-12-17 05:07:00,68.4,61.2,29.98,ENE,70,2.0,3.0,78,0.00,,,0.00,meteohub,2013-12-17 15:07:00,
2013-12-17 05:12:00,68.4,61.2,29.98,ENE,76,2.0,3.0,78,0.00,,,0.00,meteohub,2013-12-17 15:12:00,
2013-12-17 05:17:00,68.2,60.6,29.98,East,86,1.0,3.0,77,0.00,,,0.00,meteohub,2013-12-17 15:17:00,
2013-12-17 05:22:00,68.0,60.4,29.98,ENE,61,1.0,5.0,77,0.00,,,0.00,meteohub,2013-12-17 15:22:00,
2013-12-17 05:27:00,68.4,60.8,29.98,ESE,107,3.0,5.0,77,0.00,,,0.00,meteohub,2013-12-17 15:27:00,
2013-12-17 05:32:00,68.9,61.7,29.98,East,86,1.0,4.0,78,0.00,,,0.00,meteohub,2013-12-17 15:32:00,
2013-12-17 05:37:00,69.1,61.5,29.98,ENE,73,0.0,4.0,77,0.00,,,0.00,meteohub,2013-12-17 15:37:00,
2013-12-17 05:42:00,69.4,62.2,29.98,East,82,1.0,3.0,78,0.00,,,0.00,meteohub,2013-12-17 15:42:00,
2013-12-17 05:48:00,69.6,62.4,29.98,ENE,57,0.0,3.0,78,0.00,,,0.00,meteohub,2013-12-17 15:48:00,
2013-12-17 05:53:00,69.8,62.6,29.98,ENE,57,0.0,3.0,78,0.00,,,0.00,meteohub,2013-12-17 15:53:00,
2013-12-17 05:58:00,69.4,61.9,29.98,East,81,2.0,2.0,77,0.00,,,0.00,meteohub,2013-12-17 15:58:00,
2013-12-17 06:03:00,68.4,61.2,29.98,East,92,3.0,3.0,78,0.00,,,0.00,meteohub,2013-12-17 16:03:00,
2013-12-17 06:08:00,67.6,60.3,29.98,ENE,77,2.0,4.0,77,0.00,,,0.00,meteohub,2013-12-17 16:08:00,
2013-12-17 06:13:00,67.3,59.5,29.98,East,82,1.0,4.0,76,0.00,,,0.00,meteohub,2013-12-17 16:13:00,
2013-12-17 06:18:00,66.9,59.2,29.98,East,82,4.0,4.0,76,0.00,,,0.00,meteohub,2013-12-17 16:18:00,
2013-12-17 06:23:00,66.9,59.2,29.99,East,79,0.0,4.0,76,0.00,,,0.00,meteohub,2013-12-17 16:23:00,
2013-12-17 06:28:00,67.1,59.4,29.99,NE,34,3.0,4.0,76,0.00,,,0.00,meteohub,2013-12-17 16:28:00,
2013-12-17 06:33:00,67.5,59.5,29.99,ENE,67,1.0,4.0,76,0.00,,,0.00,meteohub,2013-12-17 16:33:00,
2013-12-17 06:38:00,67.5,59.5,29.99,ENE,58,3.0,4.0,76,0.00,,,0.00,meteohub,2013-12-17 16:38:00,
2013-12-17 06:43:00,67.6,60.3,29.99,East,80,2.0,4.0,77,0.00,,,0.00,meteohub,2013-12-17 16:43:00,
2013-12-17 06:48:00,67.5,60.1,30.00,ENE,73,1.0,4.0,77,0.00,,,0.00,meteohub,2013-12-17 16:48:00,
2013-12-17 06:53:00,67.5,60.1,30.00,East,94,1.0,4.0,77,0.00,,,0.00,meteohub,2013-12-17 16:53:00,
2013-12-17 06:58:00,67.6,60.6,30.00,NE,56,1.0,4.0,78,0.00,,,0.00,meteohub,2013-12-17 16:58:00,
2013-12-17 07:03:00,67.3,59.5,30.00,ENE,63,2.0,4.0,76,0.00,,,0.00,meteohub,2013-12-17 17:03:00,
2013-12-17 07:09:00,66.9,58.8,30.01,East,95,2.0,5.0,75,0.00,,,0.00,meteohub,2013-12-17 17:09:00,
2013-12-17 07:14:00,66.9,58.8,30.01,East,88,1.0,5.0,75,0.00,,,0.00,meteohub,2013-12-17 17:14:00,
2013-12-17 07:19:00,67.5,60.1,30.01,ENE,71,2.0,5.0,77,0.00,,,0.00,meteohub,2013-12-17 17:19:00,
2013-12-17 07:24:00,68.4,60.8,30.01,East,94,1.0,5.0,77,0.00,,,0.00,meteohub,2013-12-17 17:24:00,
2013-12-17 07:29:00,68.4,60.4,30.00,East,86,2.0,5.0,76,0.00,,,0.00,meteohub,2013-12-17 17:29:00,
2013-12-17 07:34:00,68.0,60.4,30.00,ENE,78,2.0,5.0,77,0.00,,,0.00,meteohub,2013-12-17 17:34:00,
2013-12-17 07:39:00,68.0,60.8,30.01,ESE,108,2.0,4.0,78,0.00,,,0.00,meteohub,2013-12-17 17:39:00,
2013-12-17 07:44:00,67.8,60.3,30.00,East,94,2.0,3.0,77,0.00,,,0.00,meteohub,2013-12-17 17:44:00,
2013-12-17 07:49:00,68.5,60.6,30.01,SE,126,1.0,3.0,76,0.00,,,0.00,meteohub,2013-12-17 17:49:00,
2013-12-17 07:54:00,69.3,60.6,30.01,SE,131,3.0,4.0,74,0.00,,,0.00,meteohub,2013-12-17 17:54:00,
2013-12-17 07:59:00,69.8,60.8,30.01,ESE,122,3.0,4.0,73,0.00,,,0.00,meteohub,2013-12-17 17:59:00,
2013-12-17 08:04:00,70.5,61.5,30.01,ESE,110,1.0,6.0,73,0.00,,,0.00,meteohub,2013-12-17 18:04:00,
2013-12-17 08:09:00,71.2,62.1,30.01,SE,131,1.0,6.0,73,0.00,,,0.00,meteohub,2013-12-17 18:09:00,
2013-12-17 08:14:00,72.1,63.0,30.01,SE,135,1.0,6.0,73,0.00,,,0.00,meteohub,2013-12-17 18:14:00,
2013-12-17 08:19:00,72.9,63.7,30.01,SSE,163,3.0,4.0,73,0.00,,,0.00,meteohub,2013-12-17 18:19:00,
2013-12-17 08:24:00,73.6,64.0,30.02,SE,127,1.0,3.0,72,0.00,,,0.00,meteohub,2013-12-17 18:24:00,
2013-12-17 08:29:00,73.9,63.9,30.02,SE,141,1.0,3.0,71,0.00,,,0.00,meteohub,2013-12-17 18:29:00,
2013-12-17 08:35:00,74.1,64.6,30.02,ESE,123,1.0,3.0,72,0.00,,,0.00,meteohub,2013-12-17 18:35:00,
2013-12-17 08:40:00,74.5,64.4,30.02,SSW,213,0.0,3.0,71,0.00,,,0.00,meteohub,2013-12-17 18:40:00,
2013-12-17 08:45:00,74.7,64.6,30.02,SSE,153,1.0,3.0,71,0.00,,,0.00,meteohub,2013-12-17 18:45:00,
2013-12-17 08:50:00,75.0,64.9,30.02,SSW,210,1.0,3.0,71,0.00,,,0.00,meteohub,2013-12-17 18:50:00,
2013-12-17 08:55:00,74.8,64.4,30.03,SW,226,2.0,4.0,70,0.00,,,0.00,meteohub,2013-12-17 18:55:00,
2013-12-17 09:00:00,74.5,64.4,30.03,SW,231,1.0,5.0,71,0.00,,,0.00,meteohub,2013-12-17 19:00:00,
2013-12-17 09:05:00,74.5,64.4,30.03,West,259,3.0,5.0,71,0.00,,,0.00,meteohub,2013-12-17 19:05:00,
2013-12-17 09:10:00,74.7,64.6,30.03,SSW,205,0.0,5.0,71,0.00,,,0.00,meteohub,2013-12-17 19:10:00,
2013-12-17 09:15:00,75.2,64.8,30.03,West,281,0.0,4.0,70,0.00,,,0.00,meteohub,2013-12-17 19:15:00,
2013-12-17 09:20:00,75.4,64.9,30.03,WSW,248,1.0,3.0,70,0.00,,,0.00,meteohub,2013-12-17 19:20:00,
2013-12-17 09:25:00,75.0,64.2,30.03,West,263,2.0,3.0,69,0.00,,,0.00,meteohub,2013-12-17 19:25:00,
2013-12-17 09:30:00,75.2,65.1,30.03,WNW,285,2.0,4.0,71,0.00,,,0.00,meteohub,2013-12-17 19:30:00,
2013-12-17 09:35:00,75.0,64.6,30.03,NW,305,2.0,5.0,70,0.00,,,0.00,meteohub,2013-12-17 19:35:00,
2013-12-17 09:40:00,75.2,64.8,30.03,NW,311,3.0,5.0,70,0.00,,,0.00,meteohub,2013-12-17 19:40:00,
2013-12-17 09:46:00,75.4,64.6,30.03,WNW,300,2.0,5.0,69,0.00,,,0.00,meteohub,2013-12-17 19:46:00,
2013-12-17 09:51:00,75.4,64.6,30.03,WNW,291,1.0,6.0,69,0.00,,,0.00,meteohub,2013-12-17 19:51:00,
2013-12-17 09:56:00,75.7,64.8,30.03,West,278,4.0,6.0,69,0.00,,,0.00,meteohub,2013-12-17 19:56:00,
2013-12-17 10:01:00,75.9,65.5,30.03,West,277,3.0,6.0,70,0.00,,,0.00,meteohub,2013-12-17 20:01:00,
2013-12-17 10:06:00,76.3,64.9,30.03,WSW,239,2.0,6.0,68,0.00,,,0.00,meteohub,2013-12-17 20:06:00,
2013-12-17 10:11:00,76.5,65.1,30.02,South,183,3.0,6.0,68,0.00,,,0.00,meteohub,2013-12-17 20:11:00,
2013-12-17 10:16:00,76.6,65.3,30.02,WNW,287,2.0,4.0,68,0.00,,,0.00,meteohub,2013-12-17 20:16:00,
2013-12-17 10:21:00,77.0,65.1,30.02,NW,305,4.0,6.0,67,0.00,,,0.00,meteohub,2013-12-17 20:21:00,
2013-12-17 10:26:00,77.0,65.7,30.02,West,273,4.0,6.0,68,0.00,,,0.00,meteohub,2013-12-17 20:26:00,
2013-12-17 10:31:00,77.0,65.7,30.02,WSW,256,6.0,8.0,68,0.00,,,0.00,meteohub,2013-12-17 20:31:00,
2013-12-17 10:36:00,77.2,65.8,30.02,West,259,3.0,8.0,68,0.00,,,0.00,meteohub,2013-12-17 20:36:00,
2013-12-17 10:41:00,77.0,66.0,30.02,SW,232,5.0,8.0,69,0.00,,,0.00,meteohub,2013-12-17 20:41:00,
2013-12-17 10:46:00,77.0,66.4,30.01,West,266,5.0,8.0,70,0.00,,,0.00,meteohub,2013-12-17 20:46:00,
2013-12-17 10:51:00,77.2,66.6,30.01,SW,232,6.0,8.0,70,0.00,,,0.00,meteohub,2013-12-17 20:51:00,
2013-12-17 10:56:00,77.5,66.6,30.01,West,261,6.0,8.0,69,0.00,,,0.00,meteohub,2013-12-17 20:56:00,
2013-12-17 11:01:00,77.7,66.4,30.01,WSW,239,3.0,8.0,68,0.00,,,0.00,meteohub,2013-12-17 21:01:00,
2013-12-17 11:07:00,78.1,66.2,30.01,West,273,3.0,8.0,67,0.00,,,0.00,meteohub,2013-12-17 21:07:00,
2013-12-17 11:12:00,78.1,66.2,30.01,WNW,287,3.0,8.0,67,0.00,,,0.00,meteohub,2013-12-17 21:12:00,
2013-12-17 11:17:00,78.1,65.8,30.01,SSW,200,4.0,8.0,66,0.00,,,0.00,meteohub,2013-12-17 21:17:00,
2013-12-17 11:22:00,78.1,66.2,30.00,West,269,5.0,7.0,67,0.00,,,0.00,meteohub,2013-12-17 21:22:00,
2013-12-17 11:27:00,78.3,66.0,30.00,SW,226,4.0,7.0,66,0.00,,,0.00,meteohub,2013-12-17 21:27:00,
2013-12-17 11:32:00,78.3,66.7,30.00,WSW,245,4.0,7.0,68,0.00,,,0.00,meteohub,2013-12-17 21:32:00,
2013-12-17 11:37:00,78.3,66.7,29.99,SW,234,10.0,10.0,68,0.00,,,0.00,meteohub,2013-12-17 21:37:00,
2013-12-17 11:42:00,78.3,66.4,29.99,West,262,4.0,11.0,67,0.00,,,0.00,meteohub,2013-12-17 21:42:00,
2013-12-17 11:47:00,78.3,66.7,29.99,SW,228,6.0,11.0,68,0.00,,,0.00,meteohub,2013-12-17 21:47:00,
2013-12-17 11:52:00,77.7,66.7,29.98,East,92,8.0,11.0,69,0.00,,,0.00,meteohub,2013-12-17 21:52:00,
2013-12-17 11:57:00,77.5,66.6,29.99,SE,141,2.0,11.0,69,0.00,,,0.00,meteohub,2013-12-17 21:57:00,
2013-12-17 12:02:00,77.5,66.6,29.98,NW,321,3.0,11.0,69,0.00,,,0.00,meteohub,2013-12-17 22:02:00,
2013-12-17 12:07:00,77.4,66.4,29.98,WNW,295,1.0,11.0,69,0.00,,,0.00,meteohub,2013-12-17 22:07:00,
2013-12-17 12:12:00,77.4,65.5,29.98,NW,310,4.0,9.0,67,0.00,,,0.00,meteohub,2013-12-17 22:12:00,
2013-12-17 12:17:00,77.5,65.3,29.98,NW,312,8.0,12.0,66,0.00,,,0.00,meteohub,2013-12-17 22:17:00,
2013-12-17 12:20:00,77.5,64.8,29.97,WNW,287,12.0,12.0,65,0.00,,,0.00,meteohub,2013-12-17 22:20:00,
2013-12-17 12:25:00,78.3,65.5,29.97,NW,309,12.0,13.0,65,0.00,,,0.00,meteohub,2013-12-17 22:25:00,
2013-12-17 12:30:00,78.1,65.8,29.96,NW,311,8.0,16.0,66,0.00,,,0.00,meteohub,2013-12-17 22:30:00,
2013-12-17 12:35:00,77.7,65.8,29.96,West,278,7.0,16.0,67,0.00,,,0.00,meteohub,2013-12-17 22:35:00,
2013-12-17 12:40:00,77.5,65.3,29.96,NNW,335,10.0,17.0,66,0.00,,,0.00,meteohub,2013-12-17 22:40:00,
2013-12-17 12:45:00,77.7,65.5,29.96,WNW,296,5.0,17.0,66,0.00,,,0.00,meteohub,2013-12-17 22:45:00,
2013-12-17 12:50:00,77.7,65.5,29.96,NW,310,9.0,17.0,66,0.00,,,0.00,meteohub,2013-12-17 22:50:00,
2013-12-17 12:55:00,78.1,65.8,29.95,NW,304,7.0,15.0,66,0.00,,,0.00,meteohub,2013-12-17 22:55:00,
2013-12-17 13:00:00,77.9,65.1,29.95,WNW,288,3.0,15.0,65,0.00,,,0.00,meteohub,2013-12-17 23:00:00,
2013-12-17 13:05:00,78.1,66.2,29.95,WNW,297,11.0,17.0,67,0.00,,,0.00,meteohub,2013-12-17 23:05:00,
2013-12-17 13:10:00,79.0,66.6,29.94,NW,306,7.0,17.0,66,0.00,,,0.00,meteohub,2013-12-17 23:10:00,
2013-12-17 13:15:00,79.0,66.6,29.94,WNW,296,9.0,17.0,66,0.00,,,0.00,meteohub,2013-12-17 23:15:00,
2013-12-17 13:20:00,79.3,66.6,29.94,NW,318,8.0,17.0,65,0.00,,,0.00,meteohub,2013-12-17 23:20:00,
2013-12-17 13:25:00,79.5,65.3,29.94,NW,316,14.0,17.0,62,0.00,,,0.00,meteohub,2013-12-17 23:25:00,
2013-12-17 13:31:00,79.3,65.1,29.94,NW,315,11.0,18.0,62,0.00,,,0.00,meteohub,2013-12-17 23:31:00,
2013-12-17 13:36:00,79.0,65.3,29.94,WNW,293,7.0,18.0,63,0.00,,,0.00,meteohub,2013-12-17 23:36:00,
2013-12-17 13:41:00,79.3,65.1,29.94,WNW,296,12.0,18.0,62,0.00,,,0.00,meteohub,2013-12-17 23:41:00,
2013-12-17 13:46:00,79.3,63.7,29.94,WNW,290,11.0,16.0,59,0.00,,,0.00,meteohub,2013-12-17 23:46:00,
2013-12-17 13:51:00,79.7,65.1,29.94,NW,311,7.0,19.0,61,0.00,,,0.00,meteohub,2013-12-17 23:51:00,
2013-12-17 13:56:00,79.9,64.2,29.94,NW,307,8.0,19.0,59,0.00,,,0.00,meteohub,2013-12-17 23:56:00,
2013-12-17 14:01:00,79.9,63.9,29.93,NW,308,7.0,16.0,58,0.00,,,0.00,meteohub,2013-12-18 00:01:00,
2013-12-17 14:06:00,79.5,64.4,29.93,NW,321,6.0,16.0,60,0.00,,,0.00,meteohub,2013-12-18 00:06:00,
2013-12-17 14:11:00,79.5,64.4,29.93,NNW,329,7.0,16.0,60,0.00,,,0.00,meteohub,2013-12-18 00:11:00,
2013-12-17 14:16:00,79.7,65.1,29.94,NNW,330,7.0,15.0,61,0.00,,,0.00,meteohub,2013-12-18 00:16:00,
2013-12-17 14:21:00,79.7,65.1,29.93,NW,326,9.0,16.0,61,0.00,,,0.00,meteohub,2013-12-18 00:21:00,
2013-12-17 14:26:00,79.2,64.9,29.93,NW,311,3.0,16.0,62,0.00,,,0.00,meteohub,2013-12-18 00:26:00,
2013-12-17 14:31:00,79.3,64.8,29.93,NW,311,6.0,16.0,61,0.00,,,0.00,meteohub,2013-12-18 00:31:00,
2013-12-17 14:36:00,79.3,64.8,29.93,NW,321,9.0,16.0,61,0.00,,,0.00,meteohub,2013-12-18 00:36:00,
2013-12-17 14:41:00,79.0,64.4,29.93,NW,314,12.0,16.0,61,0.00,,,0.00,meteohub,2013-12-18 00:41:00,
2013-12-17 14:46:00,79.0,64.4,29.93,WNW,302,6.0,16.0,61,0.00,,,0.00,meteohub,2013-12-18 00:46:00,
2013-12-17 14:51:00,79.2,64.9,29.93,NNW,335,4.0,16.0,62,0.00,,,0.00,meteohub,2013-12-18 00:51:00,
2013-12-17 14:57:00,79.5,64.9,29.93,WNW,300,13.0,15.0,61,0.00,,,0.00,meteohub,2013-12-18 00:57:00,
2013-12-17 15:02:00,79.3,64.8,29.93,NW,326,8.0,16.0,61,0.00,,,0.00,meteohub,2013-12-18 01:02:00,
2013-12-17 15:07:00,79.0,64.4,29.94,NNW,337,4.0,16.0,61,0.00,,,0.00,meteohub,2013-12-18 01:07:00,
2013-12-17 15:12:00,79.3,63.7,29.94,WNW,296,12.0,16.0,59,0.00,,,0.00,meteohub,2013-12-18 01:12:00,
2013-12-17 15:17:00,79.5,64.9,29.94,NNW,335,4.0,16.0,61,0.00,,,0.00,meteohub,2013-12-18 01:17:00,
2013-12-17 15:22:00,79.3,64.8,29.94,WNW,300,7.0,14.0,61,0.00,,,0.00,meteohub,2013-12-18 01:22:00,
2013-12-17 15:27:00,79.3,65.1,29.93,NNW,330,7.0,13.0,62,0.00,,,0.00,meteohub,2013-12-18 01:27:00,
2013-12-17 15:32:00,79.5,64.9,29.93,WNW,295,4.0,13.0,61,0.00,,,0.00,meteohub,2013-12-18 01:32:00,
2013-12-17 15:37:00,79.9,65.7,29.93,WNW,294,3.0,12.0,62,0.00,,,0.00,meteohub,2013-12-18 01:37:00,
2013-12-17 15:42:00,80.1,65.8,29.94,WNW,301,9.0,12.0,62,0.00,,,0.00,meteohub,2013-12-18 01:42:00,
2013-12-17 15:47:00,79.7,65.1,29.94,North,353,5.0,13.0,61,0.00,,,0.00,meteohub,2013-12-18 01:47:00,
2013-12-17 15:52:00,79.5,64.9,29.93,WNW,300,8.0,13.0,61,0.00,,,0.00,meteohub,2013-12-18 01:52:00,
2013-12-17 15:57:00,79.2,64.9,29.93,WNW,303,2.0,17.0,62,0.00,,,0.00,meteohub,2013-12-18 01:57:00,
2013-12-17 16:02:00,79.2,65.8,29.93,WNW,294,6.0,17.0,64,0.00,,,0.00,meteohub,2013-12-18 02:02:00,
2013-12-17 16:07:00,78.8,65.7,29.93,NW,308,10.0,17.0,64,0.00,,,0.00,meteohub,2013-12-18 02:07:00,
2013-12-17 16:12:00,78.6,65.8,29.94,WNW,291,5.0,17.0,65,0.00,,,0.00,meteohub,2013-12-18 02:12:00,
2013-12-17 16:17:00,78.3,65.5,29.94,NNW,346,6.0,16.0,65,0.00,,,0.00,meteohub,2013-12-18 02:17:00,
2013-12-17 16:22:00,78.1,65.8,29.94,NNW,328,6.0,14.0,66,0.00,,,0.00,meteohub,2013-12-18 02:22:00,
2013-12-17 16:27:00,78.3,65.5,29.94,North,9,4.0,15.0,65,0.00,,,0.00,meteohub,2013-12-18 02:27:00,
2013-12-17 16:32:00,78.1,65.3,29.94,NW,312,6.0,15.0,65,0.00,,,0.00,meteohub,2013-12-18 02:32:00,
2013-12-17 16:37:00,78.1,65.8,29.94,NE,46,3.0,15.0,66,0.00,,,0.00,meteohub,2013-12-18 02:37:00,
2013-12-17 16:42:00,77.7,65.5,29.94,NW,323,7.0,13.0,66,0.00,,,0.00,meteohub,2013-12-18 02:42:00,
2013-12-17 16:47:00,77.4,65.5,29.94,NW,326,6.0,11.0,67,0.00,,,0.00,meteohub,2013-12-18 02:47:00,
2013-12-17 16:52:00,76.8,64.9,29.95,NW,319,7.0,15.0,67,0.00,,,0.00,meteohub,2013-12-18 02:52:00,
2013-12-17 16:57:00,76.5,64.2,29.95,NNW,331,4.0,15.0,66,0.00,,,0.00,meteohub,2013-12-18 02:57:00,
2013-12-17 17:02:00,76.3,64.0,29.95,NNE,15,5.0,13.0,66,0.00,,,0.00,meteohub,2013-12-18 03:02:00,
2013-12-17 17:07:00,76.3,64.6,29.95,NW,315,3.0,12.0,67,0.00,,,0.00,meteohub,2013-12-18 03:07:00,
2013-12-17 17:13:00,76.5,65.1,29.96,WNW,300,4.0,12.0,68,0.00,,,0.00,meteohub,2013-12-18 03:13:00,
2013-12-17 17:18:00,76.5,64.8,29.96,NW,325,2.0,12.0,67,0.00,,,0.00,meteohub,2013-12-18 03:18:00,
2013-12-17 17:23:00,76.1,63.9,29.96,NNE,32,4.0,13.0,66,0.00,,,0.00,meteohub,2013-12-18 03:23:00,
2013-12-17 17:28:00,75.9,64.6,29.96,NW,310,6.0,13.0,68,0.00,,,0.00,meteohub,2013-12-18 03:28:00,
2013-12-17 17:33:00,75.7,64.4,29.96,NNW,337,2.0,13.0,68,0.00,,,0.00,meteohub,2013-12-18 03:33:00,
2013-12-17 17:38:00,75.4,64.6,29.96,NW,321,4.0,13.0,69,0.00,,,0.00,meteohub,2013-12-18 03:38:00,
2013-12-17 17:43:00,74.8,64.4,29.96,NNW,341,3.0,11.0,70,0.00,,,0.00,meteohub,2013-12-18 03:43:00,
2013-12-17 17:48:00,74.5,64.4,29.96,NNW,331,4.0,11.0,71,0.00,,,0.00,meteohub,2013-12-18 03:48:00,
2013-12-17 17:54:00,74.3,64.8,29.97,NNE,26,4.0,12.0,72,0.00,,,0.00,meteohub,2013-12-18 03:54:00,
2013-12-17 17:59:00,73.9,64.4,29.97,ENE,57,4.0,12.0,72,0.00,,,0.00,meteohub,2013-12-18 03:59:00,
2013-12-17 18:04:00,73.8,64.6,29.97,NNE,15,3.0,12.0,73,0.00,,,0.00,meteohub,2013-12-18 04:04:00,
2013-12-17 18:09:00,73.6,64.8,29.97,NNW,345,5.0,10.0,74,0.00,,,0.00,meteohub,2013-12-18 04:09:00,
2013-12-17 18:14:00,73.6,64.8,29.97,NNE,33,1.0,11.0,74,0.00,,,0.00,meteohub,2013-12-18 04:14:00,
2013-12-17 18:19:00,73.2,64.4,29.97,NNW,341,2.0,11.0,74,0.00,,,0.00,meteohub,2013-12-18 04:19:00,
2013-12-17 18:24:00,73.0,64.6,29.98,West,280,3.0,11.0,75,0.00,,,0.00,meteohub,2013-12-18 04:24:00,
2013-12-17 18:29:00,72.9,64.4,29.98,North,6,3.0,9.0,75,0.00,,,0.00,meteohub,2013-12-18 04:29:00,
2013-12-17 18:34:00,72.9,64.4,29.98,NNE,27,0.0,9.0,75,0.00,,,0.00,meteohub,2013-12-18 04:34:00,
2013-12-17 18:39:00,72.7,64.8,29.98,North,8,3.0,8.0,76,0.00,,,0.00,meteohub,2013-12-18 04:39:00,
2013-12-17 18:44:00,72.5,64.6,29.98,NW,316,2.0,8.0,76,0.00,,,0.00,meteohub,2013-12-18 04:44:00,
2013-12-17 18:49:00,72.3,64.4,29.99,NNE,32,4.0,8.0,76,0.00,,,0.00,meteohub,2013-12-18 04:49:00,
2013-12-17 18:54:00,72.1,64.2,29.99,NNW,340,2.0,10.0,76,0.00,,,0.00,meteohub,2013-12-18 04:54:00,
2013-12-17 18:59:00,72.1,64.6,29.99,NW,323,2.0,10.0,77,0.00,,,0.00,meteohub,2013-12-18 04:59:00,
2013-12-17 19:01:00,72.1,64.6,29.99,North,356,2.0,10.0,77,0.00,,,0.00,meteohub,2013-12-18 05:01:00,
2013-12-17 19:02:00,72.0,64.4,29.99,ENE,58,1.0,10.0,77,0.00,,,0.00,meteohub,2013-12-18 05:02:00,
2013-12-17 19:03:00,72.0,64.4,29.99,NNE,30,3.0,10.0,77,0.00,,,0.00,meteohub,2013-12-18 05:03:00,
2013-12-17 19:05:00,72.0,64.4,29.99,NNE,27,7.0,10.0,77,0.00,,,0.00,meteohub,2013-12-18 05:05:00,
2013-12-17 19:07:00,72.0,64.4,29.99,NE,40,2.0,8.0,77,0.00,,,0.00,meteohub,2013-12-18 05:07:00,
2013-12-17 19:09:00,72.0,64.4,29.99,NNE,30,6.0,8.0,77,0.00,,,0.00,meteohub,2013-12-18 05:09:00,
2013-12-17 19:14:00,71.8,64.2,29.99,NE,41,2.0,8.0,77,0.00,,,0.00,meteohub,2013-12-18 05:14:00,
2013-12-17 19:19:00,71.6,64.0,29.99,NNE,13,5.0,8.0,77,0.00,,,0.00,meteohub,2013-12-18 05:19:00,
2013-12-17 19:24:00,71.4,63.9,29.99,NE,43,5.0,8.0,77,0.00,,,0.00,meteohub,2013-12-18 05:24:00,
2013-12-17 19:29:00,71.2,63.7,30.00,NE,46,8.0,8.0,77,0.00,,,0.00,meteohub,2013-12-18 05:29:00,
2013-12-17 19:34:00,71.2,64.0,30.00,ENE,72,5.0,8.0,78,0.00,,,0.00,meteohub,2013-12-18 05:34:00,
2013-12-17 19:39:00,70.9,63.3,30.00,ENE,58,3.0,9.0,77,0.00,,,0.00,meteohub,2013-12-18 05:39:00,
2013-12-17 19:44:00,70.5,63.3,30.00,NE,42,1.0,9.0,78,0.00,,,0.00,meteohub,2013-12-18 05:44:00,
2013-12-17 19:49:00,70.3,63.1,30.00,ENE,58,4.0,9.0,78,0.00,,,0.00,meteohub,2013-12-18 05:49:00,
2013-12-17 19:54:00,70.3,63.5,30.00,NE,46,5.0,6.0,79,0.00,,,0.00,meteohub,2013-12-18 05:54:00,
2013-12-17 19:59:00,70.3,63.1,30.00,NE,44,3.0,9.0,78,0.00,,,0.00,meteohub,2013-12-18 05:59:00,
2013-12-17 20:04:00,70.2,63.0,30.01,NE,39,1.0,10.0,78,0.00,,,0.00,meteohub,2013-12-18 06:04:00,
2013-12-17 20:09:00,70.0,62.8,30.01,NNE,18,1.0,10.0,78,0.00,,,0.00,meteohub,2013-12-18 06:09:00,
2013-12-17 20:14:00,69.6,62.4,30.01,NE,36,3.0,10.0,78,0.00,,,0.00,meteohub,2013-12-18 06:14:00,
2013-12-17 20:19:00,69.3,62.1,30.01,NE,42,1.0,5.0,78,0.00,,,0.00,meteohub,2013-12-18 06:19:00,
2013-12-17 20:24:00,69.1,61.9,30.01,NNE,25,2.0,4.0,78,0.00,,,0.00,meteohub,2013-12-18 06:24:00,
2013-12-17 20:29:00,69.1,61.9,30.01,ENE,68,1.0,4.0,78,0.00,,,0.00,meteohub,2013-12-18 06:29:00,
2013-12-17 20:35:00,68.7,61.5,30.01,NNE,20,2.0,4.0,78,0.00,,,0.00,meteohub,2013-12-18 06:35:00,
2013-12-17 20:40:00,69.1,61.9,30.01,ENE,71,1.0,3.0,78,0.00,,,0.00,meteohub,2013-12-18 06:40:00,
2013-12-17 20:45:00,69.4,61.9,30.01,NE,40,0.0,4.0,77,0.00,,,0.00,meteohub,2013-12-18 06:45:00,
2013-12-17 20:50:00,69.4,61.5,30.01,North,9,0.0,4.0,76,0.00,,,0.00,meteohub,2013-12-18 06:50:00,
2013-12-17 20:55:00,69.4,61.5,30.01,NE,42,3.0,4.0,76,0.00,,,0.00,meteohub,2013-12-18 06:55:00,
2013-12-17 21:00:00,69.6,61.3,30.01,ENE,67,2.0,4.0,75,0.00,,,0.00,meteohub,2013-12-18 07:00:00,
2013-12-17 21:05:00,69.4,60.8,30.01,NE,55,1.0,6.0,74,0.00,,,0.00,meteohub,2013-12-18 07:05:00,
2013-12-17 21:10:00,69.1,60.8,30.01,ENE,58,0.0,4.0,75,0.00,,,0.00,meteohub,2013-12-18 07:10:00,
2013-12-17 21:15:00,68.5,61.0,30.01,NE,53,2.0,3.0,77,0.00,,,0.00,meteohub,2013-12-18 07:15:00,
2013-12-17 21:20:00,68.4,61.2,30.01,East,81,2.0,4.0,78,0.00,,,0.00,meteohub,2013-12-18 07:20:00,
2013-12-17 21:25:00,68.2,61.3,30.02,ENE,68,2.0,4.0,79,0.00,,,0.00,meteohub,2013-12-18 07:25:00,
2013-12-17 21:30:00,67.6,61.0,30.02,ENE,73,2.0,4.0,79,0.00,,,0.00,meteohub,2013-12-18 07:30:00,
2013-12-17 21:35:00,67.6,61.5,30.02,ENE,70,2.0,3.0,81,0.00,,,0.00,meteohub,2013-12-18 07:35:00,
2013-12-17 21:40:00,67.6,61.2,30.01,ENE,75,3.0,3.0,80,0.00,,,0.00,meteohub,2013-12-18 07:40:00,
2013-12-17 21:45:00,67.8,61.7,30.01,East,81,3.0,4.0,81,0.00,,,0.00,meteohub,2013-12-18 07:45:00,
2013-12-17 21:50:00,68.4,61.9,30.01,ENE,67,1.0,4.0,80,0.00,,,0.00,meteohub,2013-12-18 07:50:00,
2013-12-17 21:55:00,68.4,61.5,30.01,East,85,3.0,4.0,79,0.00,,,0.00,meteohub,2013-12-18 07:55:00,
2013-12-17 22:00:00,68.0,61.2,30.02,ENE,71,2.0,4.0,79,0.00,,,0.00,meteohub,2013-12-18 08:00:00,
2013-12-17 22:06:00,67.8,61.0,30.01,East,82,1.0,4.0,79,0.00,,,0.00,meteohub,2013-12-18 08:06:00,
2013-12-17 22:11:00,67.6,61.0,30.01,ENE,73,2.0,4.0,79,0.00,,,0.00,meteohub,2013-12-18 08:11:00,
2013-12-17 22:16:00,67.6,61.0,30.02,East,89,0.0,3.0,79,0.00,,,0.00,meteohub,2013-12-18 08:16:00,
2013-12-17 22:21:00,66.9,60.3,30.02,ENE,76,2.0,2.0,79,0.00,,,0.00,meteohub,2013-12-18 08:21:00,
2013-12-17 22:26:00,66.7,60.8,30.02,ENE,68,1.0,2.0,81,0.00,,,0.00,meteohub,2013-12-18 08:26:00,
2013-12-17 22:31:00,67.3,61.0,30.02,East,81,3.0,3.0,80,0.00,,,0.00,meteohub,2013-12-18 08:31:00,
2013-12-17 22:36:00,66.9,60.6,30.02,East,90,3.0,5.0,80,0.00,,,0.00,meteohub,2013-12-18 08:36:00,
2013-12-17 22:41:00,67.3,61.2,30.02,ENE,68,3.0,5.0,81,0.00,,,0.00,meteohub,2013-12-18 08:41:00,
2013-12-17 22:46:00,67.3,61.0,30.02,East,94,2.0,5.0,80,0.00,,,0.00,meteohub,2013-12-18 08:46:00,
2013-12-17 22:51:00,67.1,61.2,30.02,East,94,4.0,4.0,81,0.00,,,0.00,meteohub,2013-12-18 08:51:00,
2013-12-17 22:56:00,67.6,61.2,30.02,East,98,4.0,4.0,80,0.00,,,0.00,meteohub,2013-12-18 08:56:00,
2013-12-17 23:01:00,67.8,61.3,30.02,East,92,2.0,4.0,80,0.00,,,0.00,meteohub,2013-12-18 09:01:00,
2013-12-17 23:06:00,67.8,61.0,30.02,East,86,2.0,4.0,79,0.00,,,0.00,meteohub,2013-12-18 09:06:00,
2013-12-17 23:11:00,67.8,60.6,30.02,East,84,3.0,4.0,78,0.00,,,0.00,meteohub,2013-12-18 09:11:00,
2013-12-17 23:16:00,68.2,60.6,30.02,ENE,77,3.0,4.0,77,0.00,,,0.00,meteohub,2013-12-18 09:16:00,
2013-12-17 23:21:00,68.4,60.8,30.02,East,85,3.0,4.0,77,0.00,,,0.00,meteohub,2013-12-18 09:21:00,
2013-12-17 23:26:00,68.4,60.4,30.02,East,81,3.0,4.0,76,0.00,,,0.00,meteohub,2013-12-18 09:26:00,
2013-12-17 23:31:00,68.4,60.4,30.02,East,86,2.0,4.0,76,0.00,,,0.00,meteohub,2013-12-18 09:31:00,
2013-12-17 23:37:00,68.2,60.3,30.02,East,100,3.0,4.0,76,0.00,,,0.00,meteohub,2013-12-18 09:37:00,
2013-12-17 23:42:00,68.2,60.3,30.02,East,91,3.0,5.0,76,0.00,,,0.00,meteohub,2013-12-18 09:42:00,
2013-12-17 23:47:00,68.4,60.8,30.02,ENE,74,2.0,5.0,77,0.00,,,0.00,meteohub,2013-12-18 09:47:00,
2013-12-17 23:52:00,68.2,60.3,30.02,NW,323,2.0,4.0,76,0.00,,,0.00,meteohub,2013-12-18 09:52:00,
2013-12-17 23:57:00,67.8,60.6,30.01,ESE,106,0.0,4.0,78,0.00,,,0.00,meteohub,2013-12-18 09:57:00,